Terminal Aerodrome Forecast
Issued by NWS Columbia, SC

Home | Current Version | Previous Version | Text Only | Print | Product List | Glossary On
Versions: 1 2 3 4 5 6 7 8 9 10 11 12 13 14 15 16 17 18 19 20 21 22 23 24 25 26 27 28 29 30 31 32 33 34 35 36 37 38 39 40 41 42 43 44 45 46 47 48
000
FTUS42 KCAE 210800 AAC
TAFAGS
TAF AMD
KAGS 210835Z 2109/2206 VRB04KT P6SM BKN012
     FM211300 VRB03KT 5SM BR OVC015
     FM211600 05004KT P6SM VCSH BKN015 OVC025
     FM212100 06005KT 6SM -RA BR SCT010 OVC015=

USA.gov is the U.S. government's official web portal to all federal, state and local government web resources and services.